Location: Aressy
(43.2833°N, 0.3167°W)
Time: 17:33:03
(UTC+00:00)

CZ-4 R/B - Pass Details

Date: 28 January 2021
Orbit: 531 x 599 km, 97.7° (Epoch: 03 March)

Event Time Altitude Azimuth Distance (km) Brightness Sun altitude
Rises 17:52:48 0° 141° (SE) 2,768 4.7 -8.4°
Reaches altitude 10° 17:55:09 10° 130° (SE) 1,863 3.7 -8.9°
Maximum altitude 17:58:39 29° 70° (ENE) 1,039 2.2 -9.5°
Drops below altitude 10° 18:02:06 10° 9° (N) 1,840 3.8 -10.1°
Sets 18:04:24 0° 358° (N) 2,727 4.7 -10.5°
